DMSP 5D-2 F13 DEB, 40404

Orbit data source: Space-Track

DMSP 5D-2 F13 DEB, 40404 is space debris in SSO originally from a launch on Fri, 24 Mar 1995 UTC launched from the Air Force Western Test Range (AFWTR). Debris objects in space refer to the collection of defunct objects orbiting the Earth. Examples of debris include non-operational satellites, rocket bodies, and fragments generated from explosions, collisions, or faulty payload assembly.

Loading next visibility...
Identifier
40404, 1995-015R
Orbit
SSO
Country
Flag of USUS
Related business
Manufacturer
Unknown
Mission
Spacecraft
Bus & Motor
Unknown
Mass
Unknown
Launch date (UTC)
1995-03-24 (31 years ago)
Launch vehicle
Unknown
Launch site
Air Force Western Test Range (AFWTR)
Object type
Payload
Rocket body
Debris
Shape & HBR
Unknown shape, 0.1 m
Radar Cross Section
Small (<0.1 m²)

Expand to show TLE details & history
Last TLE update: 16 hours ago

TLE from 16 hours ago
0 DMSP 5D-2 F13 DEB
1 40404U 95015R   26126.97101664  .00000358  00000-0  19332-3 0  9990
2 40404  98.7895 143.4020 0004560 256.1511 103.9158 14.18899684578836
Epoch: 2026-05-06T23:18Z
TLE epoch observation values (Epoch: 2026-05-06T23:18:15.837Z)
Latitude
0.00002°
Longitude
-70.98785°
Altitude
832.779 km
Speed
7.436 km/s
True Right ascension
09h 33m 36s
True Declination
0° 00' 00"
Sunlit
Object was in daylight at epoch
Visualization orbit readout
Latitude
Unknown
Longitude
Unknown
Altitude
Unknown
Speed
Unknown
Apparent Right ascension
Unknown
Apparent Declination
Unknown
Sunlit
N/A
Visualization observer readout
Local Sidereal Time
23:44:58
Azimuth
Unknown
Elevation
Unknown
Doppler factor
Unknown
Orbital elements
Apogee altitude
829.525 km
Perigee altitude
822.955 km
Semi-major axis
7,204.377 km
Eccentricity
0.00046
Inclination
98.7895°
RAAN
143.402°
Arg. of periapsis
256.1511°
True anomaly
103.96651°
Mean anomaly
103.9158°
Eccentric anomaly
103.94116°
Mean motion
3.54935 °/min
Orbital period
101.43 mins
BSTAR
0.00019332

Documentation

Showing up to 5 results
|